Location: Byhalia Creek
(34.8270°N, 89.8040°W)
Time: 16:18:16
(UTC+00:00)

NOSS 0 Rocket - Pass Details

Date: 22 April 2026
Orbit: 935 x 953 km, 70.0° (Epoch: 9 May)

Event Time Altitude Azimuth Distance (km) Brightness Sun altitude
Rises 10:37:43 0° 337° (NNW) 3,614 7.0 -8.8°
Reaches altitude 10° 10:40:15 10° 337° (NNW) 2,663 6.3 -8.3°
Maximum altitude 10:46:27 88° 248° (WSW) 944 4.0 -7.1°
Drops below altitude 10° 10:52:35 10° 160° (SSE) 2,637 6.3 -5.9°
Sets 10:55:05 0° 160° (SSE) 3,576 7.0 -5.5°
